Renton, WA
on Sunday, December 2, 2012

Sunday
Previous Day Next Day
Daily Summary
 ActualAverage (KSEA)Record (KSEA)
Temperature
Mean Temperature °F 42°F  
Max Temperature 50°F 47°F 57°F (1958)
Min Temperature 46°F 37°F 25°F (1985)
Degree Days
Heating Degree Days 17 23  
Month to date heating degree days 46  
Since 1 July heating degree days 1229  
Cooling Degree Days 0 0  
Month to date cooling degree days 0  
Year to date cooling degree days 189  
Moisture
Dew Point 43°F   
Average Humidity 78    
Maximum Humidity 87    
Minimum Humidity 66    
Precipitation
Precipitation 0.63 in 0.20 in 1.75 in (1975)
Month to date precipitation 0.40  
Year to date precipitation 32.54  
Snow
Snow 0.00 in in 1.70 in (1985)
Month to date snowfall  
Since 1 July snowfall  
Snow Depth in   
Wind
Wind Speed 7 mph   
Max Wind Speed 17 mph   
Max Gust Speed 24 mph   
Visibility 9 miles   
Events Rain   

Key: T is trace of precipitation, MM is missing value
Source: NWS Daily Summary
Time(PST)TemperatureDew PointHumidity Pressure Visibility Wind DirectionWind SpeedGust SpeedPrecipitationEvents Conditions
12:53 AM 50.0°F 42.1°F 74% 29.25 in 9.0 miles Calm Calm - 0.01 in Rain Light Rain
1:53 AM 48.0°F 44.1°F 86% 29.25 in 6.0 miles SSW 5.8 mph - 0.08 in Rain Light Rain
2:53 AM 48.0°F 44.1°F 86% 29.25 in 6.0 miles South 3.5 mph - 0.08 in Rain Light Rain
3:53 AM 48.2°F 44.6°F 87% 29.19 in 9.0 miles East 6.9 mph - N/A Rain Light Rain
4:53 AM 48.0°F 44.1°F 86% 29.21 in 10.0 miles South 4.6 mph - 0.00 in   Overcast
5:53 AM 48.0°F 44.1°F 86% 29.26 in 7.0 miles SSE 3.5 mph - 0.02 in Rain Light Rain
6:08 AM 48.2°F 44.6°F 87% 29.25 in 9.0 miles SSE 6.9 mph - 0.00 in Rain Light Rain
6:53 AM 48.9°F 43.0°F 80% 29.29 in 10.0 miles SSE 8.1 mph - 0.01 in   Mostly Cloudy
7:53 AM 48.9°F 41.0°F 74% 29.36 in 10.0 miles South 11.5 mph 23.0 mph N/A   Scattered Clouds
8:09 AM 48.2°F 42.8°F 82% 29.35 in 10.0 miles SSE 6.9 mph 16.1 mph N/A   Mostly Cloudy
8:53 AM 48.9°F 43.0°F 80% 29.40 in 10.0 miles SSE 8.1 mph - N/A   Overcast
9:43 AM 50.0°F 42.8°F 76% 29.43 in 10.0 miles SSE 8.1 mph - N/A   Overcast
9:53 AM 50.0°F 42.1°F 74% 29.45 in 10.0 miles SE 6.9 mph - N/A   Overcast
10:53 AM 48.9°F 42.1°F 77% 29.49 in 6.0 miles SSE 9.2 mph - 0.00 in Rain Light Rain
11:10 AM 48.2°F 42.8°F 82% 29.48 in 6.0 miles SSE 8.1 mph - 0.02 in Rain Light Rain
11:53 AM 48.9°F 39.9°F 71% 29.52 in 10.0 miles South 12.7 mph 24.2 mph 0.03 in   Overcast
12:53 PM 50.0°F 42.1°F 74% 29.54 in 10.0 miles SE 10.4 mph 17.3 mph 0.00 in   Overcast
1:16 PM 50.0°F 41.0°F 71% 29.54 in 10.0 miles SSE 13.8 mph 23.0 mph N/A   Overcast
1:43 PM 50.0°F 39.2°F 66% 29.55 in 10.0 miles SSE 13.8 mph - 0.00 in Rain Light Rain
1:53 PM 48.9°F 39.9°F 71% 29.57 in 10.0 miles SSE 17.3 mph 24.2 mph 0.00 in   Overcast
2:19 PM 48.2°F 41.0°F 76% 29.58 in 9.0 miles South 11.5 mph 20.7 mph 0.01 in Rain Light Rain
2:53 PM 48.9°F 41.0°F 74% 29.61 in 6.0 miles SSE 12.7 mph 17.3 mph 0.08 in Rain Light Rain
3:53 PM 48.0°F 42.1°F 80% 29.65 in 3.0 miles SSE 5.8 mph - 0.14 in Rain Rain
4:53 PM 46.9°F 43.0°F 86% 29.67 in 9.0 miles ESE 3.5 mph - 0.08 in Rain Light Rain
5:53 PM 48.9°F 42.1°F 77% 29.67 in 10.0 miles SE 9.2 mph - 0.03 in Rain Light Rain
6:53 PM 50.0°F 43.0°F 77% 29.71 in 10.0 miles SSE 9.2 mph 17.3 mph 0.02 in   Overcast
7:00 PM 50.0°F 42.8°F 76% 29.70 in 10.0 miles SSE 9.2 mph 18.4 mph 0.00 in Rain Light Rain
7:53 PM 50.0°F 44.1°F 80% 29.73 in 8.0 miles SE 5.8 mph - 0.05 in Rain Light Rain
8:53 PM 50.0°F 44.1°F 80% 29.75 in 10.0 miles SE 8.1 mph - 0.00 in Rain Light Rain
9:32 PM 50.0°F 42.8°F 76% 29.75 in 10.0 miles SE 6.9 mph - 0.00 in   Overcast
9:53 PM 50.0°F 43.0°F 77% 29.78 in 10.0 miles SSE 10.4 mph - 0.00 in Rain Light Rain
10:53 PM 50.0°F 42.1°F 74% 29.79 in 10.0 miles SSE 10.4 mph 20.7 mph 0.00 in   Mostly Cloudy
11:53 PM 48.9°F 43.0°F 80% 29.83 in 10.0 miles SSE 8.1 mph - 0.00 in Rain Light Rain
Moon Phase
Dec. 02 Dec. 06 Dec. 13 Dec. 20 Dec. 28
Sunrise:07:37 AM (PST) Moon Rise:08:19 PM (PST)
Sunset:04:19 PM (PST) Moon Set:10:24 AM (PST)

Copyright © 2014 The Weather Underground, Inc.